Weather History for Fort Drum, NY

Change the Weather History Date:

Wednesday, February 26, 2014

  Actual Average Record
Temperature  
Mean Temperature 10 °F -  
Max Temperature 15 °F 31 °F 53 °F (2002)
Min Temperature 5 °F 13 °F -7 °F (2003)
Degree Days  
Heating Degree Days 55    
Moisture  
Dew Point 4 °F    
Average Humidity 77    
Maximum Humidity 93    
Minimum Humidity 47    
Precipitation  
Precipitation 0.02 in - - ()
Sea Level Pressure  
Sea Level Pressure 29.79 in    
Wind  
Wind Speed 10 mph (SW)    
Max Wind Speed 22 mph    
Max Gust Speed 33 mph    
Visibility 5 miles    
Events Fog , Snow    
Averages and records for this station are not official NWS values.
T = Trace of Precipitation, MM = Missing Value Source: NWS Daily Summary

Daily Weather History Graph

Daily Weather History Graph

Search for Another Location

Airport:

Trip Planner

Search our weather history database for the weather conditions in past years. The results will help you decide how hot, cold, wet, or windy it might be!

Date:

Astronomy

Feb. 26, 2014 Rise Set
Actual Time 6:44 AM EST 5:47 PM EST
Civil Twilight 6:15 AM EST 6:16 PM EST
Nautical Twilight 5:42 AM EST 6:49 PM EST
Astronomical Twilight 5:08 AM EST 7:23 PM EST
Moon 4:33 AM EST 2:55 PM EST
Length of Visible Light 12h 00m
Length of Day
11h 02m
Waning Crescent, 10% of the Moon is Illuminated
Feb 26
Waning Crescent
Mar 1
New
Mar 8
First Quarter
Mar 16
Full
Mar 23
Last Quarter

Hourly Weather History & Observations

Time (EST) Temp. Windchill Dew Point Humidity Pressure Visibility Wind Dir Wind Speed Gust Speed Precip Events Conditions
12:03 AM 14.0 °F 8.2 °F 12.2 °F 93% 29.82 in 5.0 mi SSE 3.5 mph - N/A Snow Light Snow
12:38 AM 14.0 °F 5.1 °F 12.2 °F 93% 29.80 in 4.0 mi SSE 5.8 mph - N/A Snow Light Snow
12:58 AM 13.8 °F 1.0 °F 11.7 °F 91% 29.83 in 4.0 mi South 10.4 mph - 0.01 in Snow Light Snow
1:03 AM 14.0 °F 0.5 °F 12.2 °F 93% 29.79 in 2.5 mi SSE 11.5 mph - N/A Snow Light Snow
1:08 AM 14.0 °F 1.2 °F 12.2 °F 93% 29.79 in 2.0 mi SSE 10.4 mph - N/A Snow Light Snow
1:28 AM 14.0 °F 0.5 °F 12.2 °F 93% 29.78 in 1.5 mi SSE 11.5 mph - N/A Snow Light Snow
1:58 AM 13.8 °F 1.0 °F 11.7 °F 91% 29.81 in 2.0 mi South 10.4 mph - 0.00 in Snow Light Snow
2:03 AM 14.0 °F 1.2 °F 12.2 °F 93% 29.77 in 1.8 mi South 10.4 mph - N/A Snow Light Snow
2:08 AM 14.0 °F 1.2 °F 12.2 °F 93% 29.76 in 1.5 mi South 10.4 mph - N/A Snow Light Snow
2:13 AM 14.0 °F 1.2 °F 12.2 °F 93% 29.76 in 2.5 mi South 10.4 mph - N/A Snow Light Snow
2:18 AM 14.0 °F 2.0 °F 12.2 °F 93% 29.75 in 3.0 mi South 9.2 mph - N/A Snow Light Snow
2:23 AM 14.0 °F 1.2 °F 12.2 °F 93% 29.75 in 2.5 mi South 10.4 mph - N/A Snow Light Snow
2:28 AM 14.0 °F 1.2 °F 12.2 °F 93% 29.75 in 3.0 mi South 10.4 mph - N/A Snow Light Snow
2:33 AM 14.0 °F 0.5 °F 12.2 °F 93% 29.74 in 3.0 mi South 11.5 mph - N/A Snow Light Snow
2:43 AM 14.0 °F 1.2 °F 10.4 °F 86% 29.74 in 5.0 mi South 10.4 mph - N/A Snow Light Snow
2:58 AM 14.2 °F 1.4 °F 11.5 °F 89% 29.77 in 2.5 mi South 10.4 mph - 0.00 in Snow Light Snow
3:03 AM 14.0 °F -0.2 °F 10.4 °F 86% 29.72 in 5.0 mi South 12.7 mph - N/A Snow Light Snow
3:13 AM 15.8 °F 1.4 °F 12.2 °F 86% 29.72 in 2.5 mi SSW 13.8 mph - N/A Snow Light Snow
3:23 AM 15.8 °F 1.4 °F 12.2 °F 86% 29.71 in 5.0 mi SSW 13.8 mph - N/A Snow Light Snow
3:28 AM 15.8 °F 0.9 °F 12.2 °F 86% 29.71 in 8.0 mi SSW 15.0 mph - N/A Snow Light Snow
3:38 AM 15.8 °F 1.4 °F 12.2 °F 86% 29.71 in 1.0 mi SW 13.8 mph - N/A Snow Light Snow
3:43 AM 15.8 °F 2.7 °F 12.2 °F 86% 29.72 in 0.5 mi SW 11.5 mph 21.9 mph N/A Fog , Snow Light Freezing Fog
3:48 AM 15.8 °F 0.9 °F 12.2 °F 86% 29.72 in 0.5 mi SW 15.0 mph 21.9 mph N/A Fog , Snow Light Freezing Fog
3:53 AM 15.8 °F 1.4 °F 12.2 °F 86% 29.72 in 0.5 mi SW 13.8 mph 20.7 mph N/A Fog , Snow Light Freezing Fog
3:58 AM 15.8 °F 2.1 °F 12.2 °F 86% 29.76 in 0.8 mi SW 12.7 mph 20.7 mph 0.00 in Snow Light Snow
4:03 AM 15.8 °F 2.1 °F 12.2 °F 86% 29.72 in 1.2 mi SW 12.7 mph 20.7 mph N/A Snow Light Snow
4:08 AM 14.0 °F 0.5 °F 12.2 °F 93% 29.72 in 2.5 mi SW 11.5 mph 19.6 mph N/A Snow Light Snow
4:13 AM 14.0 °F 2.0 °F 12.2 °F 93% 29.72 in 4.0 mi WSW 9.2 mph - N/A Snow Light Snow
4:18 AM 14.0 °F 2.0 °F 12.2 °F 93% 29.72 in 4.0 mi WSW 9.2 mph - N/A Snow Light Snow
4:38 AM 14.0 °F 1.2 °F 12.2 °F 93% 29.73 in 9.0 mi West 10.4 mph - N/A Snow Light Snow
4:58 AM 14.4 °F -0.4 °F 10.9 °F 86% 29.78 in 7.0 mi West 13.8 mph 20.7 mph 0.00 in Snow Light Snow
5:03 AM 14.0 °F 2.0 °F 8.6 °F 79% 29.75 in 9.0 mi West 9.2 mph 19.6 mph N/A   Light Freezing Rain
5:13 AM 12.2 °F -1.0 °F 6.8 °F 79% 29.75 in 10.0 mi West 10.4 mph 20.7 mph N/A   Light Freezing Rain
5:45 AM 10.4 °F -3.3 °F 5.0 °F 79% 29.76 in 10.0 mi WSW 10.4 mph - N/A   Mostly Cloudy
5:58 AM 10.4 °F -4.1 °F 4.6 °F 78% 29.81 in 10.0 mi West 11.5 mph 19.6 mph 0.00 in   Mostly Cloudy
6:03 AM 10.4 °F -4.1 °F 5.0 °F 79% 29.76 in 10.0 mi West 11.5 mph 20.7 mph N/A   Light Freezing Rain
6:13 AM 10.4 °F -4.1 °F 3.2 °F 73% 29.77 in 10.0 mi West 11.5 mph 19.6 mph N/A   Overcast
6:58 AM 6.6 °F -9.5 °F -0.0 °F 74% 29.83 in 10.0 mi West 12.7 mph 19.6 mph 0.00 in   Clear
7:58 AM 6.3 °F -10.7 °F -4.0 °F 63% 29.86 in 9.0 mi West 13.8 mph 20.7 mph N/A   Clear
8:13 AM 6.8 °F -10.7 °F -4.0 °F 61% 29.81 in 6.0 mi West 15.0 mph 21.9 mph N/A Snow Light Snow
8:24 AM 6.8 °F -10.7 °F -4.0 °F 61% 29.81 in 9.0 mi West 15.0 mph 23.0 mph N/A   Clear
8:37 AM 6.8 °F -11.3 °F -4.0 °F 61% 29.82 in 6.0 mi West 16.1 mph 24.2 mph N/A Snow Light Snow
8:48 AM 6.8 °F -8.6 °F -2.2 °F 67% 29.82 in 7.0 mi West 11.5 mph 21.9 mph N/A   Scattered Clouds
8:55 AM 6.8 °F -11.8 °F -4.0 °F 61% 29.82 in 7.0 mi West 17.3 mph 33.4 mph N/A Snow Light Snow
8:58 AM 7.5 °F -9.7 °F -3.6 °F 60% 29.87 in 5.0 mi West 15.0 mph 33.4 mph 0.00 in Snow Light Snow
9:58 AM 8.8 °F -8.7 °F -4.9 °F 54% 29.88 in 5.0 mi West 16.1 mph 32.2 mph 0.01 in   Light Freezing Rain
10:23 AM 8.6 °F -8.3 °F -5.8 °F 52% 29.84 in 2.0 mi West 15.0 mph 31.1 mph N/A   Light Freezing Rain
10:28 AM 8.6 °F -10.0 °F -5.8 °F 52% 29.83 in 3.0 mi West 18.4 mph 29.9 mph N/A   Light Freezing Rain
10:38 AM 8.6 °F -8.3 °F -5.8 °F 52% 29.83 in 2.5 mi West 15.0 mph 33.4 mph N/A   Light Freezing Rain
10:48 AM 10.4 °F -9.1 °F -5.8 °F 48% 29.83 in 4.0 mi West 21.9 mph 32.2 mph N/A   Light Freezing Rain
10:58 AM 9.7 °F -8.6 °F -5.4 °F 51% 29.88 in 3.0 mi West 18.4 mph 32.2 mph 0.00 in   Light Freezing Rain
11:33 AM 10.4 °F -8.6 °F -5.8 °F 48% 29.83 in 2.5 mi West 20.7 mph 29.9 mph N/A   Light Freezing Rain
11:43 AM 10.4 °F -6.6 °F -5.8 °F 48% 29.83 in 3.0 mi West 16.1 mph 28.8 mph N/A   Light Freezing Rain
11:58 AM 10.2 °F -9.3 °F -5.3 °F 50% 29.88 in 4.0 mi West 21.9 mph 31.1 mph 0.00 in   Light Freezing Rain
12:03 PM 10.4 °F -9.1 °F -4.0 °F 52% 29.83 in 2.5 mi West 21.9 mph 31.1 mph N/A   Light Freezing Rain
12:13 PM 10.4 °F -7.2 °F -4.0 °F 52% 29.83 in 3.0 mi West 17.3 mph 29.9 mph N/A   Light Freezing Rain
12:58 PM 11.1 °F -4.5 °F -3.8 °F 51% 29.86 in 8.0 mi West 13.8 mph 25.3 mph 0.00 in   Light Freezing Rain
1:56 PM 12.2 °F -5.3 °F -2.2 °F 53% 29.81 in 10.0 mi WNW 18.4 mph 28.8 mph N/A   Partly Cloudy
1:58 PM 12.2 °F -4.3 °F -4.0 °F 48% 29.85 in 10.0 mi West 16.1 mph 28.8 mph 0.00 in   Partly Cloudy
1:59 PM 12.2 °F -3.7 °F -4.0 °F 48% 29.81 in 10.0 mi West 15.0 mph 28.8 mph N/A   Light Freezing Rain
2:53 PM 12.2 °F -2.5 °F -4.0 °F 48% 29.82 in 10.0 mi West 12.7 mph 24.2 mph N/A   Clear
2:58 PM 11.8 °F -3.0 °F -4.9 °F 47% 29.86 in 10.0 mi West 12.7 mph 24.2 mph 0.00 in   Clear
3:58 PM 10.9 °F -1.8 °F -4.7 °F 49% 29.86 in 10.0 mi West 9.2 mph 20.7 mph 0.00 in   Clear
4:58 PM 9.9 °F -4.0 °F -4.9 °F 51% 29.86 in 10.0 mi West 10.4 mph 17.3 mph N/A   Partly Cloudy
5:38 PM 8.6 °F -2.6 °F -5.8 °F 52% 29.81 in 10.0 mi West 6.9 mph - N/A   Mostly Cloudy
5:58 PM 7.7 °F -0.9 °F -5.3 °F 56% 29.86 in 10.0 mi WSW 4.6 mph - N/A   Overcast
6:55 PM 6.8 °F -2.0 °F -4.0 °F 61% 29.81 in 10.0 mi SW 4.6 mph - N/A Snow Light Snow
6:58 PM 6.8 °F -4.8 °F -4.0 °F 61% 29.86 in 10.0 mi SW 6.9 mph - 0.00 in Snow Light Snow
7:12 PM 6.8 °F -2.0 °F -0.4 °F 72% 29.81 in 10.0 mi SW 4.6 mph - N/A   Overcast
7:18 PM 6.8 °F -2.0 °F -0.4 °F 72% 29.81 in 9.0 mi SW 4.6 mph - N/A Snow Light Snow
7:58 PM 6.8 °F -2.0 °F 3.2 °F 85% 29.85 in 5.0 mi SW 4.6 mph - 0.00 in Snow Light Snow
8:18 PM 6.8 °F -3.5 °F 3.2 °F 85% 29.79 in 5.0 mi SSW 5.8 mph - N/A Snow Light Snow
8:23 PM 6.8 °F -3.5 °F 3.2 °F 85% 29.79 in 3.0 mi SW 5.8 mph - N/A Snow Light Snow
8:28 PM 6.8 °F -3.5 °F 3.2 °F 85% 29.79 in 2.5 mi SW 5.8 mph - N/A Snow Light Snow
8:33 PM 6.8 °F -2.0 °F 3.2 °F 85% 29.79 in 3.0 mi SSW 4.6 mph - N/A Snow Light Snow
8:38 PM 6.8 °F -2.0 °F 3.2 °F 85% 29.79 in 3.0 mi SSW 4.6 mph - N/A Snow Light Snow
8:43 PM 6.8 °F -2.0 °F 3.2 °F 85% 29.79 in 2.5 mi SSW 4.6 mph - N/A Snow Light Snow
8:48 PM 6.8 °F -2.0 °F 3.2 °F 85% 29.79 in 2.0 mi SSW 4.6 mph - N/A Snow Light Snow
8:58 PM 6.8 °F -2.0 °F 5.0 °F 92% 29.84 in 1.5 mi South 4.6 mph - 0.00 in Snow Light Snow
9:03 PM 6.8 °F -2.0 °F 5.0 °F 92% 29.79 in 1.8 mi SSE 4.6 mph - N/A Snow Light Snow
9:08 PM 6.8 °F -4.8 °F 5.0 °F 92% 29.79 in 2.5 mi SSE 6.9 mph - N/A Snow Light Snow
9:13 PM 6.8 °F -4.8 °F 5.0 °F 92% 29.78 in 4.0 mi SSE 6.9 mph - N/A Snow Light Snow
9:30 PM 6.8 °F -4.8 °F 5.0 °F 92% 29.78 in 5.0 mi SSE 6.9 mph - N/A   Overcast
9:31 PM 6.8 °F -3.5 °F 5.0 °F 92% 29.78 in 6.0 mi SSE 5.8 mph - N/A Snow Light Snow
9:58 PM 6.8 °F -4.8 °F 3.2 °F 85% 29.82 in 2.5 mi SSW 6.9 mph - 0.00 in Snow Light Snow
10:03 PM 6.8 °F -3.5 °F 3.2 °F 85% 29.77 in 2.0 mi South 5.8 mph - N/A Snow Light Snow
10:08 PM 6.8 °F -3.5 °F 3.2 °F 85% 29.76 in 2.5 mi SSE 5.8 mph - N/A Snow Light Snow
10:13 PM 6.8 °F -2.0 °F 3.2 °F 85% 29.76 in 4.0 mi SSE 4.6 mph - N/A Snow Light Snow
10:18 PM 6.8 °F -3.5 °F 3.2 °F 85% 29.75 in 5.0 mi SSE 5.8 mph - N/A Snow Light Snow
10:23 PM 6.8 °F -5.9 °F 3.2 °F 85% 29.75 in 5.0 mi South 8.1 mph - N/A Snow Light Snow
10:44 PM 5.0 °F -6.9 °F 3.2 °F 92% 29.74 in 5.0 mi South 6.9 mph - N/A   Overcast
10:48 PM 5.0 °F -8.1 °F 1.4 °F 85% 29.74 in 1.5 mi SSW 8.1 mph - N/A   Overcast
10:58 PM 5.0 °F -8.1 °F 1.4 °F 85% 29.79 in 4.0 mi SSW 8.1 mph - 0.00 in   Light Freezing Rain
10:59 PM 5.0 °F -9.1 °F 1.4 °F 85% 29.73 in 6.0 mi SSW 9.2 mph - N/A   Overcast
11:09 PM 5.0 °F -9.1 °F 1.4 °F 85% 29.73 in 10.0 mi SSW 9.2 mph - N/A   Overcast
11:39 PM 5.0 °F -10.0 °F 1.4 °F 85% 29.72 in 10.0 mi South 10.4 mph - N/A   Mostly Cloudy
11:44 PM 5.0 °F -9.1 °F -0.4 °F 78% 29.72 in 9.0 mi South 9.2 mph - N/A   Mostly Cloudy
11:49 PM 5.0 °F -9.1 °F 1.4 °F 85% 29.72 in 6.0 mi South 9.2 mph - N/A Snow Light Snow
11:54 PM 5.0 °F -10.0 °F 1.4 °F 85% 29.71 in 5.0 mi South 10.4 mph - N/A Snow Light Snow
11:58 PM 6.8 °F -7.8 °F 1.4 °F 79% 29.76 in 6.0 mi South 10.4 mph - 0.00 in Snow Light Snow